Palm Beach International Airport
KPBI : now visible

Airfield :











YOU CAN JOIN US ON...

 
LOGIN :

Register | Disclaimer

   EN    FR    IT 

 









Legend :    VFR   Marginal VFR   IFR   Intensive IFR   Very Intensive IFR
Visi :
Ceiling :
>= 8 km
>= 3000ft
5 to 8 km
1000 to 3000 ft
1500m to 5 km
500 to 1000 ft
800 to 1500m
200 to 500 ft
< 800m
< 200 ft
Symbols :   Thunderstorms  Fog  Heavy snow  Heavy precipitations  Wind > 20 kt







- Airport Elevation : 19 ft
- IATA code : PBI


KPBI - Palm Beach International

CURRENT METAR :
  • 202153Z 28013G19KT 10SM SCT055 BKN075 26/08 A2995 RMK AO2 SLP141 T02610083 $

EXPIRED METARs :
  • 202053Z 26014G18KT 10SM SCT050 BKN075 26/09 A2994 RMK AO2 SLP138 T02610089 56016 $
  • 201953Z 28008KT 10SM SCT050 BKN070 26/09 A2995 RMK AO2 SLP140 T02560089 $

TAF KPBI
Valid from the 20 at 19:00 until the 21 at 18:00 UTC


201900Z 2019/2118 26015KT P6SM SCT045
FM210000 31007KT P6SM FEW070
FM211400 31013KT P6SM FEW250
KZMA FIR / North America



MET'MAP, your aeronautical weather chart ! - Copyright ORBIFLY December 2007 - Disclaimer

ORBIFLY MET'MAP TEAM :

Programming & Development : Alexandra Zaïnal
Concept & Development : Baudouin d'Aumeries
Co-Development & Prog : Marc-Olivier Méhu
Technical & hardware support : Manuel Goepfert

Contact : metmap@orbifly.com




SOURCES & CREDITS :

   NOAA       Earth
Advisory